TimePDT,TemperatureF,Dew PointF,Humidity,Sea Level PressureIn,VisibilityMPH,Wind Direction,Wind SpeedMPH,Gust SpeedMPH,PrecipitationIn,Events,Conditions,WindDirDegrees,DateUTC
12:56 AM,55.9,52.0,87,29.99,10.0,WNW,8.1,-,N/A,,Partly Cloudy,290,2013-07-09 07:56:00
1:56 AM,55.9,52.0,87,29.99,10.0,WNW,10.4,-,N/A,,Partly Cloudy,290,2013-07-09 08:56:00
2:56 AM,55.0,52.0,89,29.99,10.0,WNW,8.1,-,N/A,,Partly Cloudy,290,2013-07-09 09:56:00
3:36 AM,55.4,51.8,88,29.99,10.0,WNW,9.2,-,N/A,,Mostly Cloudy,300,2013-07-09 10:36:00
3:56 AM,55.9,53.1,90,30.00,10.0,WNW,9.2,-,N/A,,Mostly Cloudy,300,2013-07-09 10:56:00
4:56 AM,55.9,52.0,87,30.01,10.0,WNW,6.9,-,N/A,,Mostly Cloudy,300,2013-07-09 11:56:00
5:56 AM,55.0,52.0,89,30.02,9.0,WNW,6.9,-,N/A,,Overcast,290,2013-07-09 12:56:00
6:56 AM,55.9,52.0,87,30.03,8.0,WNW,4.6,-,N/A,,Overcast,300,2013-07-09 13:56:00
7:56 AM,57.9,53.1,84,30.04,9.0,Calm,Calm,-,N/A,,Overcast,0,2013-07-09 14:56:00
8:56 AM,60.1,55.0,83,30.04,8.0,North,4.6,-,N/A,,Overcast,10,2013-07-09 15:56:00
9:56 AM,62.1,55.9,80,30.03,10.0,NNE,4.6,-,N/A,,Mostly Cloudy,20,2013-07-09 16:56:00
10:29 AM,62.6,55.4,77,30.03,10.0,NNE,5.8,-,N/A,,Scattered Clouds,20,2013-07-09 17:29:00
10:56 AM,63.0,55.9,78,30.03,10.0,NNE,5.8,-,N/A,,Partly Cloudy,20,2013-07-09 17:56:00
11:56 AM,68.0,54.0,61,30.03,10.0,WNW,11.5,-,N/A,,Partly Cloudy,290,2013-07-09 18:56:00
12:56 PM,68.0,53.1,59,30.02,10.0,WNW,16.1,-,N/A,,Partly Cloudy,300,2013-07-09 19:56:00
1:56 PM,69.1,52.0,54,30.00,10.0,WNW,17.3,-,N/A,,Partly Cloudy,300,2013-07-09 20:56:00
2:56 PM,70.0,52.0,53,29.99,10.0,WNW,16.1,-,N/A,,Partly Cloudy,300,2013-07-09 21:56:00
3:56 PM,68.0,51.1,55,29.98,10.0,WNW,21.9,-,N/A,,Partly Cloudy,300,2013-07-09 22:56:00
4:56 PM,66.0,51.1,59,29.97,10.0,WNW,24.2,29.9,N/A,,Partly Cloudy,290,2013-07-09 23:56:00
5:56 PM,64.0,51.1,63,29.95,10.0,WNW,26.5,31.1,N/A,,Partly Cloudy,290,2013-07-10 00:56:00
6:56 PM,62.1,51.1,67,29.94,10.0,WNW,20.7,-,N/A,,Partly Cloudy,290,2013-07-10 01:56:00
7:56 PM,57.0,51.1,81,29.94,10.0,WNW,21.9,-,N/A,,Partly Cloudy,290,2013-07-10 02:56:00
8:56 PM,57.0,51.1,81,29.95,10.0,WNW,17.3,-,N/A,,Partly Cloudy,300,2013-07-10 03:56:00
9:56 PM,57.0,51.1,81,29.98,10.0,West,16.1,-,N/A,,Partly Cloudy,280,2013-07-10 04:56:00
10:56 PM,55.0,51.1,86,29.99,10.0,WNW,19.6,-,N/A,,Partly Cloudy,290,2013-07-10 05:56:00
11:56 PM,54.0,50.0,86,29.99,10.0,WNW,17.3,-,N/A,,Partly Cloudy,290,2013-07-10 06:56:00